Find Local Weather

World > North America > United States > New Jersey

Colonia, New Jersey Regional Weather

Lat: 40.57N, Lon: 74.3W
Wx Zone: NJZ012
Warning FLW WEATHER ALERT - (More Info. Click Here) Warning
Feedback

Colonia, NJ Regional Weather

Expires:201905201100;;162000
ASUS41 KPHI 201012
RWRPHI

REGIONAL WEATHER ROUNDUP
NATIONAL WEATHER SERVICE MOUNT HOLLY NJ
600 AM EDT MON MAY 20 2019

NOTE:  "FAIR" INDICATES FEW OR NO CLOUDS BELOW 12,000 FEET WITH NO
SIGNIFICANT WEATHER AND/OR OBSTRUCTIONS TO VISIBILITY.

 * = STATION DOES NOT REPORT PRECIPITATION (E.G. RAIN, SNOW, ETC.) 
        OR FOG.


NJZ001>014-201100-
NORTHERN NEW JERSEY
  
CITY           SKY/WX    TMP DP  RH WIND       PRES   REMARKS
SUSSEX         MOCLDY    65  65 100 CALM      29.84R FOG              
ANDOVER*         N/A     65  64  97 CALM      29.84R                  
MORRISTOWN     FOG       64  64 100 CALM      29.82F VSB 3/4          
NEWARK         MOCLDY    70  64  81 S6        29.82F                  
TETERBORO      FAIR      67  64  90 SW6       29.81F                  
CALDWELL       MOCLDY    67  67 100 CALM      29.83  FOG              
SOMERVILLE     FOG       65  64  97 CALM      29.81S VSB 1/2          
ALLAIRE*       FAIR      69  65  86 SW7       29.86F                  
TOMS RIVER*    FAIR      69  67  93 S9        29.86S                  

$$

SKY/WX - Weather  TMP - Temperature  DP - Dew Point  RH - Relative Humidity
WIND - Wind Direction/Speed PRES - Barometric Pressure VSB - Visibility
WCI - Wind Chill Index E13G22 Wind - East Wind 13 mph/Gusts of 22 mph